weather.gov     
National Weather Service

Miscellaneous Local Product
NWS Homepage
This page is being discontinued on March 12, 2014.
The same data is available at this site. Please update your bookmarks.
Thank you, and we apologize for the inconvenience.
Please send an email to SR-SRH.Webmaster@noaa.gov with any concerns.


Current Version
Previous Version:    01  02  03  04  05  06  07  08  09  10  11  12  13  14  15  16  17  18  19  20  21  22  23  24  25  26  27  28  29  30  
   31  32  33  34  35  36  37  38  39  40  41  42  43  44  45  46  47  48  49  50  51  52  53  54  55  56  57  58  59  60  
[Printable]
130
AXUS43 KGID 270402
MISGRI

GID CWA HOURLY WEATHER ROUNDUP
NATIONAL WEATHER SERVICE HASTINGS NE
1000 PM CST WED NOV 26 2014

NOTE: "FAIR" INDICATES FEW OR NO CLOUDS BELOW 12,000 FEET WITH NO
SIGNIFICANT WEATHER AND/OR OBSTRUCTIONS TO VISIBILITY.

...SOUTH CENTRAL NEBRASKA...

CITY           SKY/WX    TMP DP  RH WIND       PRES   REMARKS
GRAND ISLAND   MOCLDY    22  16  78 N3        30.43R
HASTINGS       PTCLDY    20  14  77 N3        30.42R
KEARNEY        PTCLDY    23  16  74 CALM      30.42R
ORD            MOCLDY    21  15  78 CALM      30.41R
YORK           MOCLDY    23  16  74 N6        30.43R WCI  16
AURORA         CLOUDY    22  15  76 NW6       30.42R WCI  14
LEXINGTON      MOCLDY    26  19  75 SE3       30.38R
HOLDREGE       MOCLDY    22  15  76 N5        30.39R WCI  15
HEBRON         PTCLDY    24  17  75 NW7       30.44R WCI  16

...NEBRASKA PANHANDLE...

CITY           SKY/WX    TMP DP  RH WIND       PRES   REMARKS
CHADRON        CLOUDY   N/A N/A N/A S10       30.26F
ALLIANCE       CLOUDY    24  23  96 SW6       30.28R WCI  17
SCOTTSBLUFF    CLOUDY    24  22  91 E9        30.26F WCI  14
SIDNEY         PTCLDY    17  14  88 S9        30.28S WCI   6

...WESTERN AND NORTH CENTRAL NEBRASKA...

CITY           SKY/WX    TMP DP  RH WIND       PRES   REMARKS
VALENTINE      CLOUDY    23  18  81 E5        30.35S WCI  17
AINSWORTH      CLOUDY    20  17  87 SE5       30.35F WCI  13
ONEILL         PTCLDY    17  12  80 N3        30.41R
BROKEN BOW     MOCLDY    21  15  78 NE5       30.38S WCI  15
IMPERIAL       CLOUDY    31  27  85 SE3       30.33S
NORTH PLATTE   CLOUDY    25  19  78 SE5       30.34F WCI  19
MCCOOK         CLOUDY    31  20  63 CALM      30.37F

...EASTERN NEBRASKA...

CITY           SKY/WX    TMP DP  RH WIND       PRES   REMARKS
NORFOLK        MOCLDY    15  10  80 NW8       30.43R WCI   4
SO SIOUX CITY  CLOUDY    17  11  77 NW10      30.45R WCI   5
TEKAMAH        CLOUDY    21  14  74 NW14      30.45R WCI   8
COLUMBUS       PTCLDY    19   9  63 N6        30.45R WCI  11
ALBION         PTCLDY    20  10  63 N6        30.41R WCI  13
OMAHA EPPLEY   CLOUDY    23  18  81 N15       30.44R WCI  10
OFFUTT AFB     CLOUDY    24  18  77 N8        30.42R WCI  15
MILLARD        CLOUDY    25  19  77 NW7       30.42R WCI  17
LINCOLN        PTCLDY    20  14  77 N10       30.45R WCI   9
NEBRASKA CITY  CLOUDY    24  17  76 N14       30.40R WCI  12
BEATRICE       PTCLDY    23  18  82 N12       30.42R WCI  12
FALLS CITY     CLOUDY    26  19  74 NW10G21   30.41R WCI  16

...NORTHERN KANSAS...

CITY           SKY/WX    TMP DP  RH WIND       PRES   REMARKS
GOODLAND       CLOUDY    26  24  92 SE5       30.35R WCI  20
HILL CITY      CLOUDY    33  19  56 E5        30.40F WCI  29
NORTON         CLOUDY    28  16  59 CALM      30.39S
PHILLIPSBURG   CLOUDY    30  21  69 W3        30.42S
SMITH CENTER   CLOUDY    27  18  69 N7        30.44R WCI  19
BELOIT         MOCLDY    21  18  86 CALM      30.45R
HAYS           CLOUDY    34  16  47 NE9       30.41R WCI  26
RUSSELL        CLOUDY    30  19  63 N6        30.41R WCI  24
CONCORDIA      CLEAR     25  18  74 N7        30.44R WCI  17
SALINA         CLEAR     25  18  74 NW9       30.45R WCI  15
TOPEKA         CLOUDY    29  20  69 NW15      30.41R WCI  18




U.S. Dept. of Commerce
NOAA National Weather Service
1325 East West Highway
Silver Spring, MD 20910
E-mail: w-nws.webmaster@noaa.gov
Page last modified: May 16, 2007
NATIONAL WEATHER SERVICE: for Safety, for Work, for Fun - FOR LIFE